Location: Bonneuil
(46.1010°N, 2.9693°E)
Time: 13:41:31
(UTC+00:00)

CZ-4C R/B - Pass Details

Date: 09 April 2020
Orbit: 637 x 1365 km, 63.4° (Epoch: 26 May)

Event Time Altitude Azimuth Distance (km) Brightness Sun altitude
Rises 20:49:30 0° 321° (NW) 3,719 7.0 -22.7°
Reaches altitude 10° 20:52:05 10° 328° (NNW) 2,873 6.0 -23.0°
Maximum altitude 20:58:43 45° 40° (NE) 1,576 3.5 -23.9°
Enters shadow 21:01:47 32° 88° (E) 2,001 3.7 -24.2°
